Cloud_Cover
0 12 30 45 66 96 100 100 100 100 100 100 100 100 100 100 100 100 100 100 100 100 100 100 100 100 100 100 100 100 100 95
0 48 95 91 83 83 100 100 100 100 100 100 100 100 100 100 100 100 100 100 100 100 100 100 100 100 100 100 100 100 100 93
0 62 90 99 65 87 100 98 99 100 100 100 100 100 100 100 100 100 100 100 100 100 100 100 100 100 100 100 100 100 100 93
0 20 43 68 84 58 100 100 100 100 100 100 100 100 100 100 100 100 100 100 100 100 100 100 100 100 98 100 100 100 100 100
0 0 28 45 93 74 100 100 100 100 100 100 100 100 100 100 100 100 100 100 100 100 100 95 100 100 100 100 100 100 100 100
0 0 0 24 95 100 100 100 100 100 100 100 100 100 100 100 100 100 100 100 100 100 100 100 100 100 100 100 100 100 100 100
2 0 0 2 83 100 100 100 100 100 100 100 100 100 100 100 100 100 100 100 100 100 100 100 100 100 100 100 100 100 100 100
5 0 0 0 35 92 100 100 100 100 100 100 100 100 100 100 100 100 100 100 100 100 100 100 100 100 100 100 100 100 100 100
32 0 0 0 0 1 99 100 100 100 100 100 100 100 100 100 100 100 100 100 100 100 100 100 100 100 100 100 100 100 100 100
82 6 5 1 0 0 24 92 98 99 100 100 100 100 100 100 100 100 100 100 100 100 100 100 100 100 100 100 100 100 100 100
98 99 58 5 0 0 6 5 4 19 80 98 100 100 100 100 100 100 100 100 100 100 100 100 100 100 100 100 100 100 95 90
86 100 100 5 8 0 0 0 0 1 4 42 75 100 100 100 100 100 100 100 100 100 100 100 100 100 100 100 84 100 100 100
100 91 100 57 8 4 0 0 0 0 0 7 11 24 26 79 97 100 100 100 100 100 100 100 100 100 100 100 100 95 56 44
100 100 100 100 19 4 4 0 0 0 0 4 5 4 12 62 100 79 51 94 100 100 100 90 88 100 100 100 100 99 90 97
100 100 100 100 100 6 5 4 0 0 0 0 2 5 49 34 13 53 100 59 71 91 100 100 100 100 93 100 100 100 100 100
96 100 100 100 100 99 5 22 5 1 0 0 0 0 10 90 74 10 7 100 82 86 74 52 55 67 100 99 100 95 88 100
100 97 100 100 100 100 100 100 100 8 5 5 0 0 0 0 0 35 100 96 87 86 99 100 100 100 100 100 97 100 100 100
98 100 100 100 100 100 100 61 17 52 58 41 7 4 0 0 0 0 0 72 100 100 82 100 100 91 98 100 100 100 100 100
69 98 100 100 100 100 100 100 100 100 99 70 36 25 5 5 4 0 20 99 100 100 100 100 100 100 100 100 100 100 100 100